This is the latest recevied weather packets stored in our database for station/object KD9NSC. If no packets are shown the sender has not sent any weather packets the latest 10 day(s).
| Time | Temp. | Humidity | Pressure | Rain* | Wind** | Luminosity | Snow |
|---|---|---|---|---|---|---|---|
| 1777826399 | 14.44° C | 58% | 1015.6 hPa | 0 mm | - | 79 W/m² | - |
| 1777826096 | 14.44° C | 59% | 1015.8 hPa | 0 mm | - | 69 W/m² | - |
| 1777825793 | 14.44° C | 55% | 1015.7 hPa | 0 mm | - | 68 W/m² | - |
| 1777825491 | 15° C | 58% | 1015.9 hPa | 0 mm | - | 67 W/m² | - |
| 1777825188 | 15° C | 55% | 1015.8 hPa | 0 mm | - | 72 W/m² | - |
| 1777824884 | 15° C | 56% | 1015.6 hPa | 0 mm | - | 82 W/m² | - |
| 1777824581 | 15° C | 57% | 1015.9 hPa | 0 mm | - | 83 W/m² | - |
| 1777824278 | 15° C | 55% | 1015.7 hPa | 0 mm | - | 75 W/m² | - |
| 1777823973 | 14.44° C | 59% | 1015.6 hPa | 0 mm | - | 67 W/m² | - |
| 1777823671 | 14.44° C | 54% | 1015.7 hPa | 0 mm | - | 61 W/m² | - |
| 1777823367 | 14.44° C | 57% | 1015.8 hPa | 0 mm | - | 62 W/m² | - |
| 1777823065 | 14.44° C | 56% | 1015.8 hPa | 0 mm | - | 62 W/m² | - |
| 1777822763 | 14.44° C | 58% | 1015.7 hPa | 0 mm | - | 56 W/m² | - |
| 1777822461 | 14.44° C | 56% | 1015.8 hPa | 0 mm | - | 58 W/m² | - |
| 1777822158 | 15° C | 54% | 1015.7 hPa | 0 mm | - | 65 W/m² | - |
| 1777821855 | 14.44° C | 57% | 1015.7 hPa | 0 mm | - | 76 W/m² | - |
| 1777821552 | 14.44° C | 56% | 1015.9 hPa | 0 mm | - | 95 W/m² | - |
| 1777821250 | 14.44° C | 55% | 1016 hPa | 0 mm | - | 87 W/m² | - |
| 1777820947 | 14.44° C | 55% | 1015.8 hPa | 0 mm | - | 100 W/m² | - |
| 1777820644 | 13.89° C | 57% | 1015.8 hPa | 0 mm | - | 85 W/m² | - |
| 1777820340 | 13.89° C | 57% | 1015.7 hPa | 0 mm | - | 99 W/m² | - |
| 1777820038 | 13.89° C | 57% | 1016 hPa | 0 mm | - | 91 W/m² | - |
| 1777819734 | 13.33° C | 59% | 1016.1 hPa | 0 mm | - | 99 W/m² | - |
| 1777819433 | 13.33° C | 57% | 1016 hPa | 0 mm | - | 91 W/m² | - |
| 1777819129 | 13.33° C | 57% | 1015.9 hPa | 0 mm | - | 95 W/m² | - |
* Rain latest hour (hover to see other rain measurements)
** Current wind speed in m/s (hover to see current wind gust speed)